This is the latest recevied weather packets stored in our database for station/object KF4PPJ. If no packets are shown the sender has not sent any weather packets the latest 10 day(s).
| Time | Temp. | Humidity | Pressure | Rain* | Wind** | Luminosity | Snow |
|---|---|---|---|---|---|---|---|
| 1777491920 | 17.22° C | 58% | 1026.6 hPa | 0 mm | - | 705 W/m² | - |
| 1777491616 | 16.67° C | 58% | 1026.7 hPa | 0 mm | - | 694 W/m² | - |
| 1777491314 | 16.67° C | 60% | 1026.7 hPa | 0 mm | - | 691 W/m² | - |
| 1777491010 | 16.67° C | 59% | 1026.7 hPa | 0 mm | - | 697 W/m² | - |
| 1777490706 | 16.11° C | 58% | 1026.9 hPa | 0 mm | - | 737 W/m² | - |
| 1777490404 | 16.67° C | 59% | 1026.9 hPa | 0 mm | - | 733 W/m² | - |
| 1777490099 | 16.11° C | 60% | 1026.9 hPa | 0 mm | - | 710 W/m² | - |
| 1777489797 | 16.11° C | 60% | 1026.9 hPa | 0 mm | - | 671 W/m² | - |
| 1777489494 | 15.56° C | 61% | 1027 hPa | 0 mm | - | 714 W/m² | - |
| 1777489191 | 16.11° C | 60% | 1027 hPa | 0 mm | - | 655 W/m² | - |
| 1777488888 | 15° C | 63% | 1027 hPa | 0 mm | - | 572 W/m² | - |
| 1777488584 | 15° C | 64% | 1027 hPa | 0 mm | - | 465 W/m² | - |
| 1777488283 | 15° C | 65% | 1027.1 hPa | 0 mm | - | 408 W/m² | - |
| 1777487981 | 15.56° C | 65% | 1027.3 hPa | 0 mm | - | 406 W/m² | - |
| 1777487678 | 15.56° C | 64% | 1027.2 hPa | 0 mm | - | 553 W/m² | - |
| 1777487375 | 15.56° C | 63% | 1027.4 hPa | 0 mm | - | 525 W/m² | - |
| 1777487073 | 15.56° C | 62% | 1027.4 hPa | 0 mm | - | 671 W/m² | - |
| 1777486768 | 15.56° C | 62% | 1027.5 hPa | 0 mm | - | 639 W/m² | - |
| 1777486466 | 15.56° C | 64% | 1027.5 hPa | 0 mm | - | 480 W/m² | - |
| 1777486164 | 15° C | 65% | 1027.5 hPa | 0 mm | - | 607 W/m² | - |
| 1777485860 | 15° C | 65% | 1027.3 hPa | 0 mm | - | 584 W/m² | - |
| 1777485555 | 15° C | 65% | 1027.5 hPa | 0 mm | - | 547 W/m² | - |
| 1777485252 | 14.44° C | 67% | 1027.3 hPa | 0 mm | - | 561 W/m² | - |
| 1777484948 | 14.44° C | 66% | 1027.5 hPa | 0 mm | - | 680 W/m² | - |
| 1777484645 | 14.44° C | 66% | 1027.5 hPa | 0 mm | - | 631 W/m² | - |
* Rain latest hour (hover to see other rain measurements)
** Current wind speed in m/s (hover to see current wind gust speed)